EA5AFP-10 Weather Reports


Display with metric or nautical units.
time (UTC)temp
F
wind
direction
speed
MPH
gust
MPH
rain 1hr
in
rain 24hr
in
rain mn
in
humidity
%
barometer
mb
20260507114045 67 135 9.0 13.0 0.00 0.00 0.00 7 1008.0
20260507113552 67 112 6.0 9.0 0.00 0.00 0.00 7 1008.0
20260507113126 68 112 4.0 8.0 0.00 0.00 0.00 7 1008.1
20260507112717 67 67 4.0 6.0 0.00 0.00 0.00 7 1008.2
20260507112713 67 67 4.0 6.0 0.00 0.00 0.00 7 1008.2
20260507112559 67 67 4.0 6.0 0.00 0.00 0.00 7 1008.2
20260507112354 68 90 6.0 10.0 0.00 0.00 0.00 7 1008.1
20260507111931 68 67 7.0 10.0 0.00 0.00 0.00 7 1008.2
20260507111604 68 112 5.0 8.0 0.00 0.00 0.00 7 1008.3
20260507111516 67 90 3.0 6.0 0.00 0.00 0.00 7 1008.2
20260507111031 68 90 1.0 4.0 0.00 0.00 0.00 7 1008.3
20260507110645 68 67 7.0 10.0 0.00 0.00 0.00 7 1008.3
20260507110614 67 112 6.0 8.0 0.00 0.00 0.00 7 1008.5
20260507110149 68 90 4.0 6.0 0.00 0.00 0.00 7 1008.4
20260507105700 67 90 8.0 11.0 0.00 0.00 0.00 6 1008.4
20260507105656 67 90 8.0 11.0 0.00 0.00 0.00 6 1008.4
20260507105447 67 67 6.0 9.0 0.00 0.00 0.00 6 1008.4
20260507105307 68 112 6.0 8.0 0.00 0.00 0.00 6 1008.3
20260507105022 68 90 6.0 8.0 0.00 0.00 0.00 6 1008.3
20260507104536 69 112 6.0 8.0 0.00 0.00 0.00 6 1008.3
20260507104408 69 90 6.0 8.0 0.00 0.00 0.00 6 1008.4
20260507104117 68 135 5.0 10.0 0.00 0.00 0.00 6 1008.3
20260507103617 68 135 5.0 8.0 0.00 0.00 0.00 7 1008.5
20260507103544 67 112 5.0 9.0 0.00 0.00 0.00 7 1008.3
20260507103126 67 67 4.0 6.0 0.00 0.00 0.00 7 1008.4
20260507102717 68 90 3.0 6.0 0.00 0.00 0.00 7 1008.2
20260507102300 67 90 3.0 4.0 0.00 0.00 0.00 7 1008.3
20260507101857 67 292 0.0 2.0 0.00 0.00 0.00 7 1008.3
20260507101449 66 337 0.0 2.0 0.00 0.00 0.00 7 1008.4
20260507101353 66 315 3.0 4.0 0.00 0.00 0.00 7 1008.5
20260507100957 66 112 3.0 4.0 0.00 0.00 0.00 7 1008.4
20260507100520 67 0 0.0 0.0 0.00 0.00 0.00 7 1008.7
20260507100107 66 0 0.0 0.0 0.00 0.00 0.00 7 1008.7
20260507095700 65 90 1.0 2.0 0.00 0.00 0.00 7 1008.7
20260507095657 65 90 1.0 2.0 0.00 0.00 0.00 7 1008.7
20260507095518 65 90 1.0 2.0 0.00 0.00 0.00 7 1008.7
20260507095404 65 90 2.0 3.0 0.00 0.00 0.00 7 1008.8
20260507095022 65 112 1.0 2.0 0.00 0.00 0.00 7 1008.7
20260507094534 66 90 1.0 3.0 0.00 0.00 0.00 7 1008.9
20260507094419 66 90 2.0 3.0 0.00 0.00 0.00 7 1008.9
20260507094116 65 67 1.0 2.0 0.00 0.00 0.00 7 1008.8
20260507093616 65 315 1.0 2.0 0.00 0.00 0.00 7 1008.8
20260507093542 65 292 2.0 3.0 0.00 0.00 0.00 7 1008.8
20260507093126 66 0 0.0 0.0 0.00 0.00 0.00 7 1008.8
20260507092716 66 0 0.0 0.0 0.00 0.00 0.00 7 1008.9
20260507092714 66 0 0.0 0.0 0.00 0.00 0.00 7 1008.9
20260507092346 66 0 0.0 0.0 0.00 0.00 0.00 7 1008.9
20260507091945 65 0 0.0 2.0 0.00 0.00 0.00 7 1009.1
20260507091544 64 0 0.0 1.0 0.00 0.00 0.00 7 1008.9
20260507091104 64 112 2.0 3.0 0.00 0.00 0.00 7 1009.0
20260507090643 63 67 2.0 2.0 0.00 0.00 0.00 7 1008.9
20260507090616 63 67 3.0 4.0 0.00 0.00 0.00 7 1008.9
20260507090150 63 90 3.0 6.0 0.00 0.00 0.00 7 1008.8
20260507085657 63 90 4.0 6.0 0.00 0.00 0.00 7 1008.7
20260507085455 64 90 3.0 4.0 0.00 0.00 0.00 7 1008.7
20260507085412 64 90 3.0 4.0 0.00 0.00 0.00 7 1008.7
20260507085010 64 67 3.0 4.0 0.00 0.00 0.00 7 1008.7
20260507084518 64 67 3.0 6.0 0.00 0.00 0.00 7 1008.7
20260507084416 64 45 3.0 4.0 0.00 0.00 0.00 7 1008.7
20260507084045 64 0 1.0 2.0 0.00 0.00 0.00 7 1008.8
20260507083544 64 0 0.0 0.0 0.00 0.00 0.00 7 1008.6
20260507083126 64 292 1.0 2.0 0.00 0.00 0.00 7 1008.7
20260507082716 64 270 1.0 2.0 0.00 0.00 0.00 7 1008.4
20260507082713 64 270 1.0 2.0 0.00 0.00 0.00 7 1008.4
20260507082346 63 292 2.0 3.0 0.00 0.00 0.00 7 1008.5
20260507081455 63 315 3.0 4.0 0.00 0.00 0.00 7 1008.7
20260507080525 63 315 3.0 4.0 0.00 0.00 0.00 7 1008.6
20260507080510 63 315 3.0 4.0 0.00 0.00 0.00 7 1008.6
20260507075702 62 315 3.0 6.0 0.00 0.00 0.00 7 1008.6
20260507075442 62 315 3.0 3.0 0.00 0.00 0.00 7 1008.7
20260507075326 62 337 3.0 6.0 0.00 0.00 0.00 7 1008.7
20260507075031 62 337 3.0 6.0 0.00 0.00 0.00 7 1008.7
20260507074547 62 337 3.0 4.0 0.00 0.00 0.00 7 1008.7
20260507074127 62 315 3.0 4.0 0.00 0.00 0.00 7 1008.8
20260507073627 62 315 4.0 6.0 0.00 0.00 0.00 7 1008.7
20260507073555 62 292 5.0 6.0 0.00 0.00 0.00 7 1008.8
20260507073137 62 315 5.0 6.0 0.00 0.00 0.00 7 1008.8
20260507072725 61 292 6.0 8.0 0.00 0.00 0.00 7 1008.9
20260507072448 62 315 6.0 8.0 0.00 0.00 0.00 7 1008.7
20260507072419 62 292 5.0 6.0 0.00 0.00 0.00 7 1008.7
20260507072006 62 315 6.0 6.0 0.00 0.00 0.00 7 1008.6
20260507071523 61 292 5.0 6.0 0.00 0.00 0.00 7 1008.6
20260507071103 61 292 3.0 4.0 0.00 0.00 0.00 8 1008.5
20260507070603 60 315 3.0 4.0 0.00 0.00 0.00 8 1008.6
20260507070113 60 315 3.0 4.0 0.00 0.00 0.00 8 1008.6
20260507065704 60 315 3.0 3.0 0.00 0.00 0.00 8 1008.6
20260507065700 60 315 3.0 3.0 0.00 0.00 0.00 8 1008.6
20260507065504 60 292 3.0 4.0 0.00 0.00 0.00 8 1008.5
20260507065405 60 315 4.0 6.0 0.00 0.00 0.00 8 1008.5
20260507065039 60 315 3.0 3.0 0.00 0.00 0.00 8 1008.6
20260507064549 60 315 3.0 4.0 0.00 0.00 0.00 8 1008.5
20260507064124 60 315 2.0 2.0 0.00 0.00 0.00 8 1008.4
20260507063634 60 315 2.0 3.0 0.00 0.00 0.00 8 1008.5
20260507063205 60 292 2.0 3.0 0.00 0.00 0.00 8 1008.5
20260507062715 60 292 2.0 3.0 0.00 0.00 0.00 8 1008.5
20260507062331 60 292 2.0 3.0 0.00 0.00 0.00 8 1008.5
20260507061927 60 292 2.0 2.0 0.00 0.00 0.00 8 1008.6
20260507061458 59 0 0.0 1.0 0.00 0.00 0.00 8 1008.4
20260507061018 59 0 0.0 1.0 0.00 0.00 0.00 8 1008.4
20260507060531 58 270 0.0 1.0 0.00 0.00 0.00 8 1008.3
20260507060113 58 270 1.0 2.0 0.00 0.00 0.00 9 1008.3
20260507055704 57 292 1.0 2.0 0.00 0.00 0.00 9 1008.2
20260507055701 57 292 1.0 2.0 0.00 0.00 0.00 9 1008.2
20260507055339 57 270 2.0 3.0 0.00 0.00 0.00 9 1008.1
20260507055004 57 270 3.0 3.0 0.00 0.00 0.00 9 1008.0
20260507054511 57 270 2.0 3.0 0.00 0.00 0.00 9 1008.1
20260507054502 57 292 2.0 3.0 0.00 0.00 0.00 9 1008.0
20260507054042 56 270 2.0 2.0 0.00 0.00 0.00 9 1008.0
20260507053524 56 270 2.0 2.0 0.00 0.00 0.00 9 1008.1
20260507053119 55 292 2.0 2.0 0.00 0.00 0.00 9 1007.9
20260507052721 55 270 2.0 2.0 0.00 0.00 0.00 9 1008.0
20260507052718 55 270 2.0 2.0 0.00 0.00 0.00 9 1008.0
20260507052353 55 0 0.0 0.0 0.00 0.00 0.00 9 1008.0
20260507052244 55 0 0.0 0.0 0.00 0.00 0.00 9 1008.0
20260507051929 55 0 0.0 0.0 0.00 0.00 0.00 9 1008.0
20260507051459 55 0 0.0 0.0 0.00 0.00 0.00 9 1008.0
20260507051405 55 0 0.0 0.0 0.00 0.00 0.00 9 1007.9
20260507051019 55 292 2.0 2.0 0.00 0.00 0.00 9 1007.9
20260507050602 54 270 2.0 2.0 0.00 0.00 0.00 9 1008.1
20260507050531 54 270 2.0 2.0 0.00 0.00 0.00 9 1008.1
20260507050113 54 0 0.0 0.0 0.00 0.00 0.00 9 1008.2
20260507045702 54 315 1.0 2.0 0.00 0.00 0.00 9 1008.0
20260507045659 54 315 1.0 2.0 0.00 0.00 0.00 9 1008.0
20260507045527 54 315 1.0 2.0 0.00 0.00 0.00 9 1008.0
20260507045409 54 292 2.0 3.0 0.00 0.00 0.00 9 1008.1
20260507044944 54 270 1.0 2.0 0.00 0.00 0.00 9 1008.1
20260507044627 54 247 2.0 2.0 0.00 0.00 0.00 9 1008.1
20260507044502 54 247 2.0 2.0 0.00 0.00 0.00 9 1008.0
20260507044036 54 270 2.0 2.0 0.00 0.00 0.00 9 1007.8
20260507043711 54 270 3.0 3.0 0.00 0.00 0.00 9 1007.8
20260507043624 54 292 3.0 4.0 0.00 0.00 0.00 9 1007.9
20260507043216 54 270 3.0 3.0 0.00 0.00 0.00 9 1007.9
20260507042728 53 292 2.0 2.0 0.00 0.00 0.00 9 1008.0
20260507042724 53 292 2.0 2.0 0.00 0.00 0.00 9 1008.0
20260507042013 53 292 1.0 1.0 0.00 0.00 0.00 9 1007.9
20260507040118 53 292 1.0 2.0 0.00 0.00 0.00 9 1007.7
20260507035433 54 292 0.0 1.0 0.00 0.00 0.00 9 1007.7
20260507035020 53 270 2.0 3.0 0.00 0.00 0.00 9 1007.7
20260507034541 53 247 1.0 2.0 0.00 0.00 0.00 9 1007.6
20260507034104 53 270 2.0 3.0 0.00 0.00 0.00 9 1007.6
20260507033615 54 270 1.0 2.0 0.00 0.00 0.00 9 1007.6
20260507033544 54 247 0.0 1.0 0.00 0.00 0.00 9 1007.6
20260507033127 54 247 1.0 2.0 0.00 0.00 0.00 9 1007.7
20260507032715 53 0 0.0 0.0 0.00 0.00 0.00 9 1007.8
20260507032450 53 0 0.0 0.0 0.00 0.00 0.00 9 1007.8
20260507031954 53 292 2.0 2.0 0.00 0.00 0.00 9 1008.0
20260507031733 53 270 2.0 2.0 0.00 0.00 0.00 9 1007.9
20260507031521 53 270 2.0 3.0 0.00 0.00 0.00 9 1008.0
20260507031119 53 0 0.0 0.0 0.00 0.00 0.00 9 1007.9
20260507030734 53 292 0.0 1.0 0.00 0.00 0.00 9 1007.9
20260507030659 53 292 1.0 2.0 0.00 0.00 0.00 9 1007.9
20260507030234 53 292 1.0 2.0 0.00 0.00 0.00 9 1008.0
20260507025743 54 292 1.0 2.0 0.00 0.00 0.00 9 1008.0
20260507025740 54 292 1.0 2.0 0.00 0.00 0.00 9 1008.0
20260507025253 54 292 2.0 2.0 0.00 0.00 0.00 9 1008.1
20260507024830 54 270 1.0 2.0 0.00 0.00 0.00 9 1008.1
20260507024353 54 292 1.0 2.0 0.00 0.00 0.00 9 1007.9
20260507023907 54 292 1.0 2.0 0.00 0.00 0.00 9 1008.0
20260507023437 54 292 1.0 2.0 0.00 0.00 0.00 9 1008.2
20260507023346 54 292 1.0 2.0 0.00 0.00 0.00 9 1008.1
20260507022950 54 292 1.0 2.0 0.00 0.00 0.00 9 1008.1
20260507022946 54 292 1.0 2.0 0.00 0.00 0.00 9 1008.1
20260507022645 54 292 0.0 1.0 0.00 0.00 0.00 9 1008.1
20260507022154 55 292 1.0 2.0 0.00 0.00 0.00 9 1008.1
20260507021740 55 270 3.0 3.0 0.00 0.00 0.00 9 1008.1
20260507021334 55 270 2.0 3.0 0.00 0.00 0.00 9 1008.1
20260507020934 55 270 2.0 3.0 0.00 0.00 0.00 9 1008.2
20260507020509 55 292 2.0 3.0 0.00 0.00 0.00 9 1008.1
20260507020055 55 292 1.0 2.0 0.00 0.00 0.00 9 1008.2
20260507015801 55 292 1.0 2.0 0.00 0.00 0.00 9 1008.2
20260507015356 55 270 1.0 2.0 0.00 0.00 0.00 9 1008.3
20260507014918 55 270 2.0 3.0 0.00 0.00 0.00 9 1008.2
20260507014513 55 292 2.0 3.0 0.00 0.00 0.00 9 1008.1
20260507014506 55 292 2.0 3.0 0.00 0.00 0.00 9 1008.1
20260507014053 55 292 2.0 3.0 0.00 0.00 0.00 9 1008.1
20260507013530 55 292 2.0 2.0 0.00 0.00 0.00 9 1008.1
20260507013127 56 292 2.0 2.0 0.00 0.00 0.00 9 1008.0
20260507012727 56 270 1.0 2.0 0.00 0.00 0.00 9 1008.0
20260507012723 56 270 1.0 2.0 0.00 0.00 0.00 9 1008.0
20260507012414 56 292 2.0 2.0 0.00 0.00 0.00 9 1008.1
20260507011953 56 292 3.0 3.0 0.00 0.00 0.00 9 1008.0
20260507011524 55 292 2.0 3.0 0.00 0.00 0.00 9 1008.1
20260507011505 55 270 2.0 2.0 0.00 0.00 0.00 9 1008.1
20260507011034 55 270 3.0 3.0 0.00 0.00 0.00 9 1008.1
20260507010652 55 292 3.0 3.0 0.00 0.00 0.00 9 1008.1
20260507010615 55 292 2.0 3.0 0.00 0.00 0.00 9 1008.1
20260507010150 56 270 3.0 3.0 0.00 0.00 0.00 9 1008.1
20260507005658 56 247 2.0 3.0 0.00 0.00 0.00 9 1008.2
20260507005655 56 247 2.0 3.0 0.00 0.00 0.00 9 1008.2
20260507005411 56 292 2.0 3.0 0.00 0.00 0.00 9 1008.2
20260507005319 56 270 2.0 3.0 0.00 0.00 0.00 9 1008.1
20260507004941 56 270 3.0 3.0 0.00 0.00 0.00 9 1008.1
20260507004515 56 270 2.0 2.0 0.00 0.00 0.00 9 1008.1
20260507004452 56 270 2.0 2.0 0.00 0.00 0.00 9 1008.1
20260507004051 56 270 2.0 2.0 0.00 0.00 0.00 9 1008.2
20260507003604 56 270 2.0 3.0 0.00 0.00 0.00 9 1008.2
20260507003135 56 270 3.0 4.0 0.00 0.00 0.00 9 1008.2
20260507002711 56 270 3.0 4.0 0.00 0.00 0.00 9 1008.4
20260507002352 57 270 3.0 3.0 0.00 0.00 0.00 8 1008.3
20260507002305 57 270 3.0 3.0 0.00 0.00 0.00 8 1008.4
20260507001949 57 270 2.0 3.0 0.00 0.00 0.00 8 1008.4
20260507001457 57 292 3.0 3.0 0.00 0.00 0.00 8 1008.3
20260507001019 57 270 3.0 3.0 0.00 0.00 0.00 9 1008.3
20260507000602 57 270 3.0 3.0 0.00 0.00 0.00 9 1008.3
20260507000530 57 270 3.0 3.0 0.00 0.00 0.00 9 1008.3
20260507000114 57 270 3.0 3.0 0.00 0.00 0.00 9 1008.3
20260506235703 57 292 3.0 4.0 0.00 0.00 0.00 9 1008.4
20260506235409 57 270 2.0 3.0 0.00 0.00 0.00 8 1008.4
20260506235310 57 270 2.0 3.0 0.00 0.00 0.00 8 1008.4
20260506234934 57 270 3.0 3.0 0.00 0.00 0.00 8 1008.4
20260506234511 57 292 3.0 4.0 0.00 0.00 0.00 8 1008.4
20260506234449 57 292 2.0 3.0 0.00 0.00 0.00 8 1008.4
20260506234046 57 292 2.0 2.0 0.00 0.00 0.00 8 1008.4
20260506233616 57 292 3.0 3.0 0.00 0.00 0.00 8 1008.6
20260506233559 57 292 2.0 3.0 0.00 0.00 0.00 8 1008.6
20260506233131 57 292 1.0 2.0 0.00 0.00 0.00 8 1008.6
20260506232710 57 292 2.0 2.0 0.00 0.00 0.00 8 1008.6
20260506232707 57 292 2.0 2.0 0.00 0.00 0.00 8 1008.6
20260506232338 57 292 1.0 2.0 0.00 0.00 0.00 8 1008.8
20260506231915 57 292 3.0 3.0 0.00 0.00 0.00 8 1008.6
20260506231518 57 292 2.0 3.0 0.00 0.00 0.00 8 1008.7
20260506231445 57 292 2.0 3.0 0.00 0.00 0.00 8 1008.7
20260506231005 57 292 2.0 2.0 0.00 0.00 0.00 8 1008.5
20260506230548 57 292 1.0 1.0 0.00 0.00 0.00 8 1008.6
20260506230518 57 270 1.0 2.0 0.00 0.00 0.00 8 1008.7
20260506230059 57 270 2.0 3.0 0.00 0.00 0.00 8 1008.6
20260506225649 57 270 1.0 2.0 0.00 0.00 0.00 8 1008.7
20260506225647 57 270 1.0 2.0 0.00 0.00 0.00 8 1008.7
20260506225403 57 270 1.0 2.0 0.00 0.00 0.00 8 1008.8
20260506225246 57 292 2.0 2.0 0.00 0.00 0.00 8 1008.8
20260506224915 57 270 2.0 3.0 0.00 0.00 0.00 8 1008.8
20260506224457 57 292 2.0 3.0 0.00 0.00 0.00 8 1008.9
20260506224027 57 292 3.0 3.0 0.00 0.00 0.00 9 1008.9
20260506223553 57 270 3.0 3.0 0.00 0.00 0.00 9 1008.9
20260506223536 57 292 2.0 2.0 0.00 0.00 0.00 9 1008.8
20260506223125 57 292 1.0 2.0 0.00 0.00 0.00 9 1008.9
20260506222721 57 292 1.0 2.0 0.00 0.00 0.00 9 1008.9
20260506222718 57 292 1.0 2.0 0.00 0.00 0.00 9 1008.9
20260506222349 57 292 1.0 2.0 0.00 0.00 0.00 9 1008.8
20260506221912 57 180 2.0 2.0 0.00 0.00 0.00 9 1008.8
20260506221437 57 0 0.0 0.0 0.00 0.00 0.00 8 1008.8
20260506221012 58 0 0.0 0.0 0.00 0.00 0.00 8 1008.7
20260506220644 57 0 0.0 0.0 0.00 0.00 0.00 8 1008.8
20260506220557 58 0 0.0 0.0 0.00 0.00 0.00 8 1008.7
20260506220149 59 0 0.0 0.0 0.00 0.00 0.00 8 1008.8
20260506215657 59 0 0.0 0.0 0.00 0.00 0.00 8 1008.7
20260506215531 59 0 0.0 0.0 0.00 0.00 0.00 8 1008.7
20260506215342 59 0 0.0 0.0 0.00 0.00 0.00 8 1008.8
20260506214912 59 0 0.0 0.0 0.00 0.00 0.00 8 1008.7
20260506214606 58 0 0.0 0.0 0.00 0.00 0.00 8 1009.0
20260506214501 58 0 0.0 0.0 0.00 0.00 0.00 8 1008.8
20260506214034 59 0 0.0 0.0 0.00 0.00 0.00 8 1008.9
20260506213708 58 0 0.0 0.0 0.00 0.00 0.00 8 1008.8
20260506213622 58 0 0.0 0.0 0.00 0.00 0.00 8 1008.8
20260506213214 58 112 1.0 2.0 0.00 0.00 0.00 8 1008.9
20260506212726 59 0 0.0 0.0 0.00 0.00 0.00 8 1008.8
20260506212722 59 0 0.0 0.0 0.00 0.00 0.00 8 1008.8
20260506212405 59 0 0.0 0.0 0.00 0.00 0.00 8 1008.9
20260506211945 60 0 0.0 1.0 0.00 0.00 0.00 8 1008.8
20260506211526 60 0 0.0 0.0 0.00 0.00 0.00 8 1008.7
20260506211042 60 0 0.0 0.0 0.00 0.00 0.00 8 1008.7
20260506210625 60 0 0.0 1.0 0.00 0.00 0.00 8 1008.5
20260506210200 60 90 2.0 2.0 0.00 0.00 0.00 8 1008.4
20260506205705 60 112 3.0 4.0 0.00 0.00 0.00 8 1008.3
20260506205443 60 112 3.0 3.0 0.00 0.00 0.00 8 1008.3
20260506205316 60 112 3.0 3.0 0.00 0.00 0.00 8 1008.3
20260506205031 60 112 3.0 3.0 0.00 0.00 0.00 8 1008.3
20260506204548 60 112 3.0 4.0 0.00 0.00 0.00 8 1008.3
20260506204422 60 112 3.0 4.0 0.00 0.00 0.00 8 1008.2
20260506204113 60 112 3.0 4.0 0.00 0.00 0.00 8 1008.2
20260506203626 61 112 3.0 4.0 0.00 0.00 0.00 8 1008.2
20260506203554 61 112 4.0 6.0 0.00 0.00 0.00 8 1008.3
20260506203137 61 112 3.0 4.0 0.00 0.00 0.00 8 1008.1
20260506202727 61 112 3.0 6.0 0.00 0.00 0.00 7 1008.0
20260506202724 61 112 3.0 6.0 0.00 0.00 0.00 7 1008.0
20260506202432 61 135 4.0 6.0 0.00 0.00 0.00 7 1008.0
20260506201935 61 135 4.0 6.0 0.00 0.00 0.00 7 1007.9
20260506201518 61 90 3.0 6.0 0.00 0.00 0.00 7 1007.9
20260506201113 62 112 4.0 6.0 0.00 0.00 0.00 7 1007.8
20260506200646 62 90 3.0 4.0 0.00 0.00 0.00 7 1007.7
20260506200154 62 112 3.0 4.0 0.00 0.00 0.00 7 1007.6
20260506195702 62 90 4.0 8.0 0.00 0.00 0.00 7 1007.7
20260506195658 62 90 4.0 8.0 0.00 0.00 0.00 7 1007.7
20260506195605 62 90 4.0 8.0 0.00 0.00 0.00 7 1007.7
20260506195419 62 90 4.0 6.0 0.00 0.00 0.00 7 1007.6
20260506195014 62 112 6.0 9.0 0.00 0.00 0.00 7 1007.5
20260506194610 62 90 4.0 6.0 0.00 0.00 0.00 7 1007.5
20260506194132 62 112 4.0 6.0 0.00 0.00 0.00 7 1007.5
20260506193712 62 67 3.0 6.0 0.00 0.00 0.00 7 1007.3
20260506193644 62 67 5.0 6.0 0.00 0.00 0.00 7 1007.5
20260506193216 62 112 7.0 10.0 0.00 0.00 0.00 7 1007.4
20260506192728 62 90 2.0 3.0 0.00 0.00 0.00 7 1007.2
20260506192724 62 90 2.0 3.0 0.00 0.00 0.00 7 1007.2
20260506192630 62 90 6.0 9.0 0.00 0.00 0.00 7 1007.0
20260506192306 62 90 6.0 9.0 0.00 0.00 0.00 7 1007.0
20260506192232 62 90 6.0 9.0 0.00 0.00 0.00 7 1007.0
20260506191819 62 112 3.0 4.0 0.00 0.00 0.00 7 1007.0
20260506191401 63 112 1.0 3.0 0.00 0.00 0.00 7 1006.9
20260506190943 63 90 5.0 6.0 0.00 0.00 0.00 7 1007.1
20260506190511 62 67 4.0 6.0 0.00 0.00 0.00 7 1007.1
20260506190111 63 90 5.0 9.0 0.00 0.00 0.00 7 1007.0
20260506185702 63 112 7.0 9.0 0.00 0.00 0.00 7 1006.9
20260506185659 63 112 7.0 9.0 0.00 0.00 0.00 7 1006.9
20260506185519 63 112 7.0 9.0 0.00 0.00 0.00 7 1006.9
20260506185107 63 157 6.0 8.0 0.00 0.00 0.00 7 1006.9
20260506184610 63 112 8.0 12.0 0.00 0.00 0.00 7 1007.0
20260506184124 63 112 6.0 9.0 0.00 0.00 0.00 7 1007.0
20260506183633 63 90 7.0 10.0 0.00 0.00 0.00 7 1007.0
20260506183205 63 112 7.0 11.0 0.00 0.00 0.00 7 1006.9
20260506182718 63 90 8.0 10.0 0.00 0.00 0.00 7 1006.9
20260506182715 63 90 8.0 10.0 0.00 0.00 0.00 7 1006.9
20260506182429 63 112 6.0 9.0 0.00 0.00 0.00 7 1007.0
20260506182251 63 112 6.0 11.0 0.00 0.00 0.00 7 1006.9
20260506181944 63 112 8.0 10.0 0.00 0.00 0.00 7 1007.0
20260506181459 63 135 8.0 10.0 0.00 0.00 0.00 7 1006.8
20260506181356 63 90 8.0 11.0 0.00 0.00 0.00 7 1006.8
20260506181036 63 67 7.0 10.0 0.00 0.00 0.00 7 1006.9
20260506180605 64 135 6.0 10.0 0.00 0.00 0.00 7 1007.0
20260506180114 64 112 6.0 9.0 0.00 0.00 0.00 7 1006.9
20260506175701 64 90 6.0 10.0 0.00 0.00 0.00 7 1007.1
20260506175412 64 90 9.0 12.0 0.00 0.00 0.00 7 1006.9
20260506175001 64 112 11.0 13.0 0.00 0.00 0.00 7 1006.9
20260506174537 64 90 10.0 12.0 0.00 0.00 0.00 7 1006.9
20260506174426 64 112 8.0 11.0 0.00 0.00 0.00 7 1006.8
20260506174118 64 112 8.0 10.0 0.00 0.00 0.00 7 1006.9
20260506173629 64 67 6.0 10.0 0.00 0.00 0.00 7 1007.0
20260506173137 64 112 8.0 10.0 0.00 0.00 0.00 7 1006.9
20260506172716 64 135 7.0 13.0 0.00 0.00 0.00 7 1007.0
20260506172712 64 135 7.0 13.0 0.00 0.00 0.00 7 1007.0
20260506172357 64 112 9.0 12.0 0.00 0.00 0.00 7 1006.9
20260506171938 65 90 7.0 10.0 0.00 0.00 0.00 7 1006.9
20260506171549 65 112 10.0 13.0 0.00 0.00 0.00 7 1006.9
20260506171519 65 90 11.0 15.0 0.00 0.00 0.00 7 1006.9
20260506171035 65 90 6.0 9.0 0.00 0.00 0.00 7 1006.8
20260506170618 65 112 9.0 11.0 0.00 0.00 0.00 7 1006.7
20260506170153 65 67 8.0 11.0 0.00 0.00 0.00 7 1006.8
20260506165701 65 90 8.0 10.0 0.00 0.00 0.00 7 1006.9
20260506165658 65 90 8.0 10.0 0.00 0.00 0.00 7 1006.9
20260506165453 65 67 9.0 12.0 0.00 0.00 0.00 7 1006.7
20260506165042 65 112 6.0 10.0 0.00 0.00 0.00 7 1006.7
20260506164558 66 90 7.0 11.0 0.00 0.00 0.00 7 1006.9
20260506164107 66 90 8.0 13.0 0.00 0.00 0.00 7 1006.8
20260506163616 66 67 8.0 12.0 0.00 0.00 0.00 7 1006.6
20260506163128 65 90 10.0 13.0 0.00 0.00 0.00 7 1006.8
20260506162716 66 67 12.0 18.0 0.00 0.00 0.00 7 1006.8
20260506162508 66 67 13.0 19.0 0.00 0.00 0.00 7 1006.7
20260506162434 66 67 13.0 19.0 0.00 0.00 0.00 7 1006.7
20260506161938 67 67 11.0 15.0 0.00 0.00 0.00 6 1006.8
20260506161520 67 112 9.0 11.0 0.00 0.00 0.00 6 1006.7
20260506161036 67 90 11.0 15.0 0.00 0.00 0.00 6 1006.7
20260506160654 66 90 12.0 15.0 0.00 0.00 0.00 6 1006.5
20260506160619 66 90 12.0 15.0 0.00 0.00 0.00 6 1006.5
20260506160154 66 67 8.0 12.0 0.00 0.00 0.00 7 1006.8
20260506155703 66 67 6.0 10.0 0.00 0.00 0.00 7 1006.8
20260506155659 66 67 6.0 10.0 0.00 0.00 0.00 7 1006.8
20260506155525 66 67 6.0 10.0 0.00 0.00 0.00 7 1006.8
20260506155035 66 90 6.0 10.0 0.00 0.00 0.00 7 1006.9
20260506154555 66 90 9.0 12.0 0.00 0.00 0.00 7 1006.9
20260506154113 65 112 8.0 11.0 0.00 0.00 0.00 7 1006.9
20260506153641 65 135 8.0 15.0 0.00 0.00 0.00 7 1006.8
20260506153208 66 112 8.0 12.0 0.00 0.00 0.00 7 1006.7
20260506152715 65 112 10.0 13.0 0.00 0.00 0.00 7 1006.8
20260506152354 65 90 10.0 15.0 0.00 0.00 0.00 7 1006.8
20260506152008 65 135 10.0 15.0 0.00 0.00 0.00 7 1006.8
20260506151549 65 90 10.0 15.0 0.00 0.00 0.00 7 1006.9
20260506151108 66 112 12.0 19.0 0.00 0.00 0.00 7 1006.9
20260506150651 66 90 10.0 15.0 0.00 0.00 0.00 7 1006.8
20260506150620 66 90 10.0 15.0 0.00 0.00 0.00 7 1006.8
20260506150155 66 67 9.0 12.0 0.00 0.00 0.00 7 1006.9
20260506145701 66 67 12.0 15.0 0.00 0.00 0.00 7 1006.8
20260506145525 66 67 12.0 15.0 0.00 0.00 0.00 7 1006.8
20260506145507 67 112 10.0 13.0 0.00 0.00 0.00 7 1006.9
20260506145028 66 135 11.0 15.0 0.00 0.00 0.00 7 1006.7
20260506144539 67 67 7.0 10.0 0.00 0.00 0.00 7 1006.6
20260506144122 67 112 8.0 13.0 0.00 0.00 0.00 7 1006.8
20260506143621 67 45 10.0 15.0 0.00 0.00 0.00 6 1007.0
20260506143550 66 90 12.0 18.0 0.00 0.00 0.00 7 1007.0
20260506143131 66 112 11.0 15.0 0.00 0.00 0.00 7 1007.2
20260506142722 67 67 7.0 11.0 0.00 0.00 0.00 7 1007.1
20260506142719 67 67 7.0 11.0 0.00 0.00 0.00 7 1007.1
20260506142251 67 90 9.0 15.0 0.00 0.00 0.00 7 1007.2
20260506141801 67 112 10.0 15.0 0.00 0.00 0.00 7 1007.2
20260506141347 66 112 10.0 13.0 0.00 0.00 0.00 7 1007.2
20260506140941 67 90 9.0 17.0 0.00 0.00 0.00 7 1007.4
20260506140541 67 90 11.0 15.0 0.00 0.00 0.00 7 1007.3
20260506140116 66 90 9.0 11.0 0.00 0.00 0.00 7 1007.4
20260506135703 67 45 9.0 15.0 0.00 0.00 0.00 7 1007.4
20260506135525 67 45 9.0 15.0 0.00 0.00 0.00 7 1007.4
20260506135415 67 90 8.0 12.0 0.00 0.00 0.00 7 1007.2
20260506134956 66 157 11.0 15.0 0.00 0.00 0.00 6 1007.5
20260506134537 67 90 10.0 18.0 0.00 0.00 0.00 6 1007.4
20260506134053 67 90 12.0 15.0 0.00 0.00 0.00 6 1007.4
20260506133636 67 112 13.0 22.0 0.00 0.00 0.00 7 1007.5
20260506133211 67 90 11.0 15.0 0.00 0.00 0.00 7 1007.4
20260506132720 67 112 10.0 12.0 0.00 0.00 0.00 7 1007.5
20260506132716 67 112 10.0 12.0 0.00 0.00 0.00 7 1007.5
20260506132351 67 112 10.0 15.0 0.00 0.00 0.00 7 1007.5
20260506131903 68 112 13.0 18.0 0.00 0.00 0.00 7 1007.5
20260506131452 67 112 9.0 12.0 0.00 0.00 0.00 7 1007.3
20260506131409 67 135 12.0 15.0 0.00 0.00 0.00 7 1007.5
20260506131017 68 135 11.0 17.0 0.00 0.00 0.00 6 1007.4
20260506130540 67 90 16.0 22.0 0.00 0.00 0.00 7 1007.6
20260506130116 68 90 13.0 22.0 0.00 0.00 0.00 7 1007.5
20260506125707 68 112 9.0 15.0 0.00 0.00 0.00 6 1007.4
20260506125429 68 112 9.0 15.0 0.00 0.00 0.00 6 1007.6
20260506124958 68 112 10.0 18.0 0.00 0.00 0.00 6 1007.6
20260506124651 68 90 10.0 15.0 0.00 0.00 0.00 6 1007.6
20260506124508 68 67 10.0 15.0 0.00 0.00 0.00 6 1007.6
20260506124035 67 67 9.0 13.0 0.00 0.00 0.00 6 1007.4
20260506123618 68 67 12.0 15.0 0.00 0.00 0.00 6 1007.6
20260506123153 68 135 9.0 13.0 0.00 0.00 0.00 6 1007.5
20260506122702 68 90 11.0 18.0 0.00 0.00 0.00 6 1007.7
20260506122658 68 90 11.0 18.0 0.00 0.00 0.00 6 1007.7
20260506122420 68 112 8.0 11.0 0.00 0.00 0.00 6 1007.6
20260506121954 67 90 9.0 13.0 0.00 0.00 0.00 6 1007.7
20260506121524 68 90 11.0 15.0 0.00 0.00 0.00 6 1007.7
20260506121114 69 90 7.0 10.0 0.00 0.00 0.00 6 1007.6
20260506120639 68 135 10.0 15.0 0.00 0.00 0.00 6 1007.9
20260506120203 68 90 10.0 13.0 0.00 0.00 0.00 6 1007.9
20260506120155 68 90 10.0 13.0 0.00 0.00 0.00 6 1007.9
20260506115739 68 90 10.0 13.0 0.00 0.00 0.00 6 1007.9
20260506115328 66 90 8.0 11.0 0.00 0.00 0.00 6 1008.5
20260506114939 66 90 8.0 11.0 0.00 0.00 0.00 6 1008.5
20260506114514 66 90 8.0 11.0 0.00 0.00 0.00 6 1008.5
20260506114109 66 90 8.0 11.0 0.00 0.00 0.00 6 1008.5